Location: Unspecified
(51.0950°N, 12.9690°E)
Time: 15:30:17
(UTC+00:00)

Daily predictions for brighter satellites

Satellite Brightness Start Highest point End
(mag) Time Altitude Azimuth Time Altitude Azimuth Time Altitude Azimuth
Cosmos 1709 Rocket 4.1 20:00:31 10° N 20:06:58 85° E 20:13:20 10° S
Lacrosse 5 rocket 2.9 20:07:45 10° WNW 20:10:59 31° N 20:14:10 10° ENE
USA 186 0.5 20:09:43 10° S 20:11:38 72° W 20:13:30 10° NNW
CZ-4 R/B 4.0 20:12:22 10° SW 20:14:47 16° W 20:17:13 10° NW
SWAS 4.3 20:11:51 10° SSW 20:15:51 61° ESE 20:19:52 10° NE
ARIANE 6 FM1 Upper Stage 3.5 20:12:39 10° S 20:16:21 30° SE 20:19:59 10° ENE
CZ-4B R/B 3.1 20:12:58 10° SSE 20:16:55 61° ENE 20:20:53 10° N
Okean 2 3.4 20:13:54 10° S 20:17:40 55° E 20:21:27 10° NNE
Cosmos 2369 Rocket 3.8 20:15:42 10° SE 20:18:59 16° E 20:22:18 10° ENE
USA 245 1.9 20:20:17 10° SSE 20:22:45 78° ENE 20:25:01 10° NNW
Cosmos 494 Rocket 4.1 20:20:52 10° SSW 20:26:06 84° WNW 20:31:24 10° NNE
USA 276 1.1 20:24:32 10° W 20:26:38 66° S 20:29:03 10° E
ATLAS 5 CENTAUR R/B 1.5 20:24:54 10° S 20:27:24 27° SE 20:30:03 10° ENE
SL-4 R/B 1.6 20:25:55 10° SW 20:29:11 48° SSE 20:32:21 10° E
Cosmos 1110 Rocket 4.0 20:26:25 10° NNW 20:31:37 89° WSW 20:36:46 10° SSE
Meteor 1-21 4.4 20:26:33 10° SSW 20:32:13 85° WNW 20:38:00 10° NNE
ATLAS 5 CENTAUR R/B 4.1 20:29:01 10° SW 20:34:22 87° SE 20:56:55 10° NE
USA 238 DEB 4.1 20:29:45 10° WSW 20:35:57 68° NW 20:42:52 10° NE
USA 238 4.1 20:29:58 10° WSW 20:36:10 68° NW 20:43:06 10° NE
Okean 3 3.8 20:32:46 10° SSE 20:36:36 45° E 20:40:28 10° NNE
Okean-O 3.9 20:33:09 10° SSW 20:37:12 36° W 20:41:16 10° NNW
Cosmos 2112 Rocket 4.3 20:32:38 10° SSW 20:37:48 71° WNW 20:43:01 10° NNE
Cosmos 1174 3.4 20:34:12 10° SW 20:38:02 81° SE 20:41:18 10° NE
COSMOS 2406 3.3 20:33:36 10° NNW 20:39:20 79° ENE 20:44:48 11° SSE
Cosmos 1470 Rocket 4.1 20:37:57 10° NNW 20:42:19 57° W 20:46:37 10° S
Timation 2 Rocket 4.1 20:38:51 10° SSW 20:45:15 85° ESE 20:52:00 10° NNE
SL-8 R/B 3.7 20:43:29 10° WSW 20:48:09 62° S 20:52:49 10° E
Cosmos 1331 Rocket 4.2 20:44:31 10° NNW 20:49:40 70° WSW 20:54:38 11° SSE
Cosmos 1933 Rocket 3.5 20:45:20 10° N 20:49:42 80° E 20:53:47 12° SSE
Helios 1B rocket 4.4 20:48:16 10° E 20:49:50 13° ENE 20:51:24 10° NNE
Cosmos 1452 Rocket 3.5 20:44:31 10° NNW 20:49:51 85° ENE 20:54:40 12° SSE
NOSS 2-1 (E) 4.0 20:46:49 10° WSW 20:50:21 47° NW 20:53:22 10° NE
USA 59 Rocket 1.5 20:51:03 10° W 20:53:57 28° NW 20:56:34 10° NNE
Okean O Rocket 3.6 20:54:40 10° SSW 20:58:14 24° W 21:01:50 10° NW
Cosmos 1812 0.8 20:56:42 10° NNW 20:58:22 60° W 20:59:13 23° S
Okean 1-7 4.5 20:56:34 12° SE 20:59:17 22° E 21:02:33 10° NE
BREEZE-M R/B 3.7 20:55:14 10° W 20:59:23 78° S 21:07:46 10° E
Cosmos 1818 4.5 20:56:53 10° S 21:01:28 29° ESE 21:06:05 10° ENE
Cosmos 1400 Rocket 3.5 21:00:58 10° NNW 21:04:25 43° W 21:07:50 10° SSW
USA 290 2.9 21:06:01 10° NNW 21:09:04 44° ENE 21:11:16 16° SE
Cosmos 1441 Rocket 3.0 21:08:34 10° SSW 21:11:46 68° WNW 21:15:00 10° N
SL-12 R/B(2) 4.4 21:04:28 10° SSW 21:12:10 57° ESE 21:21:34 10° NE
Cosmos 1943 Rocket 3.9 21:07:29 10° WSW 21:12:38 36° NW 21:17:47 10° NNE
BREEZE-M DEB (TANK) 4.2 21:08:28 10° W 21:13:41 34° SSW 21:17:32 15° SSE
Cosmos 2074 Rocket 4.0 21:09:58 10° N 21:16:14 89° W 21:21:45 14° S
USA 215 3.9 21:10:26 10° E 21:16:49 59° NNE 21:23:12 10° WNW
COSMOS 2455 3.7 21:13:42 14° SSE 21:17:52 30° ESE 21:23:00 10° NE
Cosmos 1048 Rocket 4.5 21:14:13 10° SW 21:19:26 65° WNW 21:24:46 10° NNE
Cosmos 1869 Rocket 3.8 21:17:48 10° NNW 21:22:07 67° W 21:25:43 14° S
USA 308 2.9 21:20:11 10° WNW 21:22:12 41° N 21:25:33 10° ENE
Cosmos 2082 Rocket 3.7 21:18:14 10° NW 21:22:53 27° WSW 21:27:31 10° SSW
NOSS 3-1 (C) 2.9 21:21:13 10° SSW 21:25:49 63° SE 21:31:25 10° NE
NOSS 3-1 (A) 3.9 21:23:28 17° SSE 21:26:01 27° ESE 21:30:31 10° ENE
Cosmos 1733 Rocket 3.2 21:23:47 10° N 21:28:04 60° ENE 21:31:04 19° SSE
Cosmos 972 Rocket 4.0 21:23:45 10° NNW 21:29:09 84° WSW 21:32:56 18° SSE
Cosmos 2278 Rocket 3.9 21:24:13 10° WSW 21:29:23 35° NW 21:34:36 10° NNE
CZ-2C R/B 3.0 21:30:35 17° SSW 21:32:17 36° W 21:34:51 10° NNW
Lacrosse 4 Rocket 1.3 21:29:02 10° NW 21:33:16 88° SW 21:36:08 20° SSE
Cosmos 1656 Rocket 3.9 21:29:06 10° SW 21:34:37 74° WNW 21:40:15 10° NNE
Cosmos 1315 Rocket 3.3 21:30:58 10° N 21:34:38 45° ENE 21:37:00 20° SE
Nadezhda 1 Rocket 4.1 21:31:14 15° S 21:36:30 69° E 21:42:47 10° NNE
Cosmos 1707 Rocket 4.0 21:35:43 19° SSE 21:38:32 46° E 21:42:47 10° NNE
Exosat Rocket 4.5 21:33:08 10° SSW 21:39:20 72° ESE 21:48:21 10° NNE
Cosmos 1302 Rocket 4.3 21:34:32 10° NNW 21:39:46 61° WSW 21:43:39 18° S
ARGOS Delta rocket 4.2 21:36:57 10° NNE 21:41:58 53° E 21:45:17 19° SSE
Meteor 1-24 Rocket 4.3 21:40:07 18° SSE 21:44:27 49° E 21:50:10 10° NNE
Lacrosse 5 rocket 2.3 21:44:43 10° NW 21:48:05 39° NNE 21:51:23 10° E
ACS3 Solar Sail 3.7 21:46:21 10° NE 21:49:12 14° E 21:52:03 10° ESE
Spot 4 4.4 21:46:46 18° SE 21:50:13 51° ENE 21:54:53 10° N
Cosmos 1862 Rocket 3.5 21:48:13 20° S 21:51:03 66° E 21:55:20 10° NNE
BREEZE-M DEB (TANK) 3.8 21:37:42 10° W 21:54:35 76° SSW 21:59:15 10° ESE
CENTAUR R/B 4.1 21:47:30 10° NW 21:54:49 47° NNE 22:03:31 10° E
ARIANE 6 FM1 Upper Stage 3.6 21:51:06 10° WSW 21:55:11 51° NW 21:59:11 10° NE
ARIANE 5 R/B 3.1 21:52:58 19° SE 21:55:53 52° ENE 22:00:09 10° N
NOSS 2-2 (C) 4.0 21:53:16 10° NW 21:56:37 47° NE 22:00:50 11° ESE
USA 276 1.9 21:56:55 10° W 21:59:11 41° SSW 21:59:18 41° S
Cosmos 2297 Rocket 4.1 21:54:38 10° NNW 21:59:14 24° NE 22:03:49 10° E
Cosmos 1992 Rocket 4.1 21:56:03 10° NNW 22:01:14 69° WSW 22:04:40 21° S
Cosmos 2369 Rocket 2.1 21:56:33 10° SSW 22:02:09 86° ESE 22:07:48 10° NNE
Cosmos 1833 4.2 21:58:37 10° NNW 22:04:19 82° WSW 22:08:17 21° SSE
SL-4 R/B 1.4 22:03:04 10° W 22:06:22 81° N 22:09:33 10° E
SL-8 Rocket 4.0 22:00:43 10° N 22:06:54 73° ENE 22:11:17 20° SSE
IRIDIUM 103 4.4 22:02:07 10° N 22:07:23 74° E 22:10:49 22° SSE
ATLAS 5 CENTAUR R/B 2.7 22:06:33 10° W 22:09:12 29° NNW 22:12:07 10° NNE
SJ 16-02 3.6 22:08:22 10° ESE 22:09:16 11° E 22:10:10 10° E
Cosmos 220 Rocket 4.1 22:05:39 10° NNW 22:09:46 60° WSW 22:12:02 25° S
ALOS 2 2.7 22:11:49 23° SSE 22:14:30 68° ENE 22:18:53 10° N
Cosmos 2228 Rocket 3.1 22:12:22 23° S 22:15:00 73° E 22:19:28 10° NNE
Cosmos 1908 Rocket 3.9 22:11:05 10° N 22:15:28 57° ENE 22:18:02 23° SSE
Cosmos 2297 3.8 22:12:30 10° SSW 22:18:11 85° WNW 22:23:57 10° NNE
CZ-2C R/B 4.0 22:14:29 10° NNE 22:19:12 33° E 22:21:51 20° SE
Helios 1B rocket 2.0 22:20:41 29° S 22:22:15 67° WSW 22:25:42 10° NNW
Cosmos 921 Rocket 4.3 22:24:00 20° SE 22:25:32 25° E 22:28:57 10° NE
Helios 1A 3.4 22:21:42 10° N 22:25:35 54° WNW 22:28:33 16° SW
IRIDIUM 106 4.3 22:20:27 10° N 22:25:42 81° W 22:29:04 22° S
SL-8 R/B 3.7 22:25:35 10° W 22:30:12 54° SSW 22:34:49 10° ESE
Meteor 2-5 Rocket 3.8 22:28:25 20° SSW 22:32:41 88° WNW 22:38:41 10° NNE
Cosmos 1356 Rocket 3.5 22:31:13 10° NNW 22:35:15 63° W 22:37:18 27° S
Cosmos 1782 Rocket 4.2 22:31:18 10° N 22:35:33 48° ENE 22:38:05 22° SE
Okean 1-7 3.9 22:32:48 15° SW 22:35:59 43° WNW 22:40:03 10° N
Cosmos 1869 3.0 22:34:33 10° NNW 22:38:01 70° W 22:39:28 32° S
Cosmos 540 Rocket 4.0 22:36:20 10° NNW 22:41:21 53° ENE 22:45:14 16° SE
Cosmos 2341 Rocket 4.1 22:37:30 10° NNW 22:43:41 68° W 22:47:50 22° S
USA 308 2.7 22:41:22 10° WNW 22:44:17 61° NNE 22:48:21 10° E
Cosmos 1818 4.0 22:39:16 10° SW 22:44:39 65° NW 22:50:07 10° NE
PSLV R/B 3.7 22:41:11 10° NNE 22:45:52 80° ESE 22:48:32 25° S
SOZ 4.4 22:44:15 18° WSW 22:45:53 77° SSE 22:50:00 10° ENE
Cosmos 304 Rocket 4.5 22:45:10 24° SSE 22:47:24 39° ESE 22:51:50 10° NE
Cosmos 1300 Rocket 3.5 22:47:05 10° N 22:51:25 84° E 22:53:39 28° SSE
CZ-2C R/B 4.2 22:48:34 10° N 22:53:12 58° WNW 22:56:33 18° SW
Cosmos 1346 Rocket 4.0 22:54:23 21° SE 22:55:46 26° E 22:58:52 10° NE
USA 215 3.2 22:53:10 10° ESE 22:59:43 82° SSW 23:06:17 10° WNW
CZ-2C R/B 2.6 22:59:18 22° SSE 23:02:43 81° ENE 23:08:07 10° NNW
COSMOS 2455 3.2 22:57:26 10° SW 23:03:24 66° NW 23:09:25 10° NE
Lacrosse 4 Rocket 3.6 23:08:34 10° W 23:10:20 12° WSW 23:11:31 11° WSW
Cosmos 405 Rocket 4.4 23:11:49 13° ESE 23:12:44 14° E 23:14:24 10° NE
Cosmos 2227 Rocket 3.8 23:09:30 10° NNW 23:14:35 32° NE 23:19:37 10° ESE
NOSS 3-1 (A) 3.5 23:11:22 10° WSW 23:16:09 63° NW 23:22:08 10° NE
Cosmos 371 Rocket 3.4 23:13:53 26° S 23:16:26 61° ESE 23:21:12 10° NNE
Nadezhda 3 Rocket 4.1 23:13:15 23° S 23:17:20 70° E 23:23:38 10° NNE
SAR-Lupe-2 3.5 23:16:30 36° SSW 23:17:29 53° WSW 23:20:39 10° NNW
Cosmos 1821 Rocket 4.2 23:12:53 10° NNW 23:18:50 58° W 23:22:45 22° SSW
Cosmos 2084 Rocket 4.0 23:17:42 29° SSE 23:18:54 36° SE 23:22:39 10° ENE
Cosmos 1703 Rocket 4.2 23:18:21 21° SW 23:21:01 49° WNW 23:25:22 10° N
Gbstr 26 Del rocket 4.5 23:18:21 21° SSW 23:22:05 43° SE 23:28:52 10° ENE
Lacrosse 5 rocket 0.8 23:21:17 10° WNW 23:24:43 58° SW 23:26:08 31° SSE
Cosmos 2181 Rocket 4.4 23:26:52 19° SSW 23:31:32 59° WNW 23:37:55 10° N
ACS3 Solar Sail 1.6 23:26:38 10° NNE 23:32:19 76° ESE 23:36:04 23° S
ARIANE 5 R/B 4.3 23:30:19 15° SW 23:32:28 21° W 23:35:48 10° NW
Cosmos 1269 Rocket 4.2 23:28:49 20° SW 23:32:34 70° WNW 23:37:53 10° NNE
GEOS 3 Rocket 3.7 23:27:38 10° SE 23:33:01 89° NE 23:38:27 10° NW
Cosmos 407 Rocket 3.4 23:31:28 25° SSW 23:34:29 74° ESE 23:39:39 10° NNE
Cosmos 1140 Rocket 3.9 23:32:34 17° SW 23:36:26 56° WNW 23:41:29 10° NNE
MetOp-A 4.1 23:40:51 26° SW 23:42:19 36° W 23:45:52 10° NNW
NOSS 2-2 (E) 3.3 23:39:52 10° NW 23:43:25 72° SW 23:47:11 15° SE
SL-4 R/B 1.1 23:40:24 10° W 23:43:37 74° SSW 23:46:44 10° ESE
Cosmos 2297 Rocket 2.2 23:38:19 10° NNW 23:44:01 88° WSW 23:48:38 16° SSE
Cosmos 1025 Rocket 4.3 23:42:01 17° SE 23:44:42 31° E 23:48:34 10° NNE
ATLAS 3B R/B 3.8 23:41:00 19° SSE 23:45:45 36° ESE 23:52:43 10° NE
CENTAUR R/B 3.3 23:38:06 10° NW 23:46:16 81° SW 23:55:42 10° SE
Cosmos 1763 Rocket 3.9 23:41:28 10° NW 23:46:16 45° WSW 23:48:53 24° SSW
SJ 16-02 1.2 23:44:17 27° SSW 23:46:33 85° ESE 23:50:50 10° NNE
Iridium 82 4.1 23:45:56 38° SSE 23:46:46 59° E 23:49:34 10° N
Cosmos 2369 Rocket 4.2 23:42:21 10° W 23:46:53 25° NW 23:51:28 10° NNE
NOSS 2-2 (D) 3.8 23:47:57 10° WNW 23:51:28 44° SW 23:53:48 24° S
ATLAS 5 CENTAUR R/B 4.2 23:50:45 10° NNW 23:52:11 12° N 23:53:42 10° NNE
Cosmos 2263 Rocket 3.5 23:47:06 10° NNW 23:52:21 39° NE 23:57:35 10° ESE
Cosmos 1605 Rocket 4.3 23:46:46 10° N 23:52:58 62° ENE 23:58:17 14° SSE
Cosmos 1980 Rocket 4.1 23:51:40 10° SE 23:55:20 18° E 23:59:00 10° ENE
